Weather History for Peru, IL

Change the Weather History Date:

Thursday, October 10, 2013

  Actual Average Record
Temperature  
Mean Temperature 60 °F -  
Max Temperature 76 °F 64 °F 84 °F (1963)
Min Temperature 44 °F 40 °F 25 °F (1964)
Degree Days  
Heating Degree Days 5    
Growing Degree Days 10 (Base 50)    
Moisture  
Dew Point 50 °F    
Average Humidity 70    
Maximum Humidity 93    
Minimum Humidity 42    
Precipitation  
Precipitation 0.00 in - - ()
Sea Level Pressure  
Sea Level Pressure 30.10 in    
Wind  
Wind Speed 4 mph (SE)    
Max Wind Speed 10 mph    
Max Gust Speed 18 mph    
Visibility 9 miles    
Events      
Averages and records for this station are not official NWS values.
T = Trace of Precipitation, MM = Missing Value Source: NWS Daily Summary

Daily Weather History Graph

Daily Weather History Graph

Search for Another Location

Airport:

Trip Planner

Search our weather history database for the weather conditions in past years. The results will help you decide how hot, cold, wet, or windy it might be!

Date:

Astronomy

Oct. 10, 2013 Rise Set
Actual Time 7:03 AM CDT 6:23 PM CDT
Civil Twilight 6:35 AM CDT 6:50 PM CDT
Nautical Twilight 6:03 AM CDT 7:22 PM CDT
Astronomical Twilight 5:31 AM CDT 7:54 PM CDT
Moon 12:57 PM CDT (10/10) 10:58 PM CDT (10/10)
Length of Visible Light 12h 15m
Length of Day
11h 19m
Waxing Crescent, 36% of the Moon is Illuminated
Oct 10
Waxing Crescent
Oct 11
First Quarter
Oct 18
Full
Oct 26
Last Quarter
Nov 3
New

Hourly Weather History & Observations

Time (CDT) Temp. Windchill Dew Point Humidity Pressure Visibility Wind Dir Wind Speed Gust Speed Precip Events Conditions
12:15 AM 50.4 °F - 43.9 °F 78% 30.14 in 10.0 mi ENE 5.8 mph - N/A   Clear
12:35 AM 49.1 °F - 44.1 °F 83% 30.14 in 10.0 mi East 5.8 mph - N/A   Clear
12:55 AM 50.4 °F - 45.0 °F 82% 30.14 in 10.0 mi East 5.8 mph - N/A   Clear
1:15 AM 50.2 °F - 44.8 °F 82% 30.14 in 10.0 mi ENE 3.5 mph - N/A   Clear
1:35 AM 48.2 °F - 43.3 °F 83% 30.15 in 10.0 mi ENE 3.5 mph - N/A   Clear
1:55 AM 49.1 °F - 44.8 °F 85% 30.14 in 10.0 mi Calm Calm - N/A   Clear
2:15 AM 47.3 °F - 43.0 °F 85% 30.14 in 10.0 mi ENE 3.5 mph - N/A   Clear
2:35 AM 47.5 °F - 44.1 °F 88% 30.14 in 10.0 mi East 4.6 mph - N/A   Clear
2:55 AM 47.8 °F - 43.9 °F 86% 30.14 in 10.0 mi ENE 3.5 mph - N/A   Clear
3:15 AM 46.9 °F - 43.2 °F 87% 30.14 in 10.0 mi ENE 3.5 mph - N/A   Clear
3:35 AM 46.4 °F 45.2 °F 43.7 °F 90% 30.14 in 10.0 mi East 3.5 mph - N/A   Clear
3:55 AM 46.8 °F - 44.4 °F 92% 30.14 in 10.0 mi Calm Calm - N/A   Clear
4:15 AM 45.7 °F 44.4 °F 42.8 °F 90% 30.14 in 10.0 mi East 3.5 mph - N/A   Clear
4:35 AM 45.9 °F - 43.7 °F 92% 30.14 in 7.0 mi Calm Calm - N/A   Clear
4:55 AM 46.2 °F 45.0 °F 43.9 °F 92% 30.14 in 7.0 mi ENE 3.5 mph - N/A   Clear
5:15 AM 44.8 °F 43.3 °F 42.8 °F 93% 30.15 in 7.0 mi ENE 3.5 mph - N/A   Clear
5:35 AM 44.8 °F 43.3 °F 42.4 °F 91% 30.14 in 7.0 mi ENE 3.5 mph - N/A   Clear
5:55 AM 45.3 °F - 43.2 °F 92% 30.15 in 7.0 mi Calm Calm - N/A   Clear
6:15 AM 45.0 °F - 42.8 °F 92% 30.16 in 7.0 mi Calm Calm - N/A   Clear
6:35 AM 45.3 °F - 43.2 °F 92% 30.16 in 7.0 mi Calm Calm - N/A   Clear
6:55 AM 44.6 °F 42.2 °F 42.4 °F 92% 30.15 in 7.0 mi East 4.6 mph - N/A   Clear
7:15 AM 45.5 °F 43.2 °F 43.7 °F 93% 30.15 in 5.0 mi East 4.6 mph - N/A   Clear
7:35 AM 46.4 °F 45.2 °F 44.6 °F 93% 30.16 in 5.0 mi ENE 3.5 mph - N/A   Clear
7:55 AM 48.0 °F - 45.5 °F 91% 30.16 in 5.0 mi ENE 3.5 mph - N/A   Clear
8:15 AM 50.2 °F - 47.3 °F 90% 30.17 in 5.0 mi East 3.5 mph - N/A   Clear
8:35 AM 52.5 °F - 48.4 °F 86% 30.17 in 7.0 mi Calm Calm - N/A   Clear
8:55 AM 55.2 °F - 49.1 °F 80% 30.17 in 10.0 mi Calm Calm - N/A   Clear
9:15 AM 57.4 °F - 50.0 °F 76% 30.17 in 10.0 mi Calm Calm - N/A   Clear
9:35 AM 59.5 °F - 51.3 °F 74% 30.17 in 10.0 mi Calm Calm - N/A   Clear
9:55 AM 61.5 °F - 52.0 °F 71% 30.17 in 10.0 mi Calm Calm - N/A   Clear
10:15 AM 63.3 °F - 52.3 °F 67% 30.17 in 10.0 mi Calm Calm - N/A   Clear
10:35 AM 65.7 °F - 53.4 °F 65% 30.17 in 10.0 mi Calm Calm - N/A   Clear
10:55 AM 67.1 °F - 54.0 °F 63% 30.17 in 10.0 mi Calm Calm - N/A   Clear
11:15 AM 69.1 °F - 55.0 °F 61% 30.16 in 10.0 mi South 4.6 mph - N/A   Clear
11:35 AM 70.9 °F - 55.6 °F 58% 30.15 in 10.0 mi SSE 4.6 mph - N/A   Clear
11:55 AM 71.8 °F - 54.9 °F 55% 30.15 in 10.0 mi South 4.6 mph - N/A   Clear
12:15 PM 72.0 °F - 54.7 °F 54% 30.14 in 10.0 mi South 4.6 mph - N/A   Clear
12:35 PM 73.4 °F - 54.0 °F 50% 30.13 in 10.0 mi South 3.5 mph - N/A   Clear
12:55 PM 73.9 °F - 53.8 °F 49% 30.12 in 10.0 mi SE 6.9 mph - N/A   Clear
1:15 PM 75.2 °F - 53.4 °F 47% 30.11 in 10.0 mi SE 5.8 mph - N/A   Clear
1:35 PM 75.0 °F - 53.4 °F 47% 30.10 in 10.0 mi South 4.6 mph - N/A   Scattered Clouds
1:55 PM 75.2 °F - 52.9 °F 46% 30.09 in 10.0 mi SSW 9.2 mph - N/A   Scattered Clouds
2:15 PM 75.9 °F - 52.9 °F 45% 30.08 in 10.0 mi SSE 10.4 mph - N/A   Scattered Clouds
2:35 PM 75.9 °F - 52.7 °F 44% 30.08 in 10.0 mi SSE 10.4 mph 18.4 mph N/A   Clear
2:55 PM 75.4 °F - 53.1 °F 46% 30.08 in 10.0 mi SSW 8.1 mph - N/A   Clear
3:15 PM 75.9 °F - 52.3 °F 44% 30.07 in 10.0 mi South 10.4 mph - N/A   Clear
3:35 PM 75.9 °F - 52.7 °F 44% 30.06 in 10.0 mi South 6.9 mph - N/A   Clear
3:55 PM 76.3 °F - 52.0 °F 43% 30.05 in 10.0 mi SSW 6.9 mph - N/A   Clear
4:15 PM 76.1 °F - 51.3 °F 42% 30.05 in 10.0 mi South 10.4 mph - N/A   Clear
4:35 PM 76.5 °F - 52.0 °F 42% 30.05 in 10.0 mi SSE 10.4 mph - N/A   Clear
4:55 PM 76.1 °F - 52.5 °F 44% 30.05 in 10.0 mi South 10.4 mph - N/A   Clear
5:15 PM 75.2 °F - 53.8 °F 47% 30.05 in 10.0 mi South 6.9 mph - N/A   Clear
5:35 PM 74.3 °F - 53.6 °F 48% 30.04 in 10.0 mi South 6.9 mph - N/A   Clear
5:55 PM 72.7 °F - 54.0 °F 52% 30.04 in 10.0 mi South 5.8 mph - N/A   Clear
6:15 PM 71.6 °F - 52.9 °F 52% 30.04 in 10.0 mi South 3.5 mph - N/A   Clear
6:35 PM 67.8 °F - 52.9 °F 59% 30.05 in 10.0 mi Calm Calm - N/A   Clear
6:55 PM 67.6 °F - 53.1 °F 59% 30.04 in 10.0 mi Calm Calm - N/A   Clear
7:15 PM 66.9 °F - 53.1 °F 61% 30.04 in 10.0 mi Calm Calm - N/A   Clear
7:35 PM 64.9 °F - 53.1 °F 65% 30.04 in 10.0 mi Calm Calm - N/A   Clear
7:55 PM 64.4 °F - 53.1 °F 67% 30.04 in 10.0 mi Calm Calm - N/A   Clear
8:15 PM 62.8 °F - 52.9 °F 70% 30.03 in 10.0 mi Calm Calm - N/A   Clear
8:35 PM 62.2 °F - 53.2 °F 72% 30.04 in 10.0 mi ESE 3.5 mph - N/A   Clear
8:55 PM 62.6 °F - 53.6 °F 72% 30.04 in 10.0 mi ESE 4.6 mph - N/A   Clear
9:15 PM 61.5 °F - 53.1 °F 74% 30.04 in 10.0 mi ESE 4.6 mph - N/A   Clear
9:35 PM 60.4 °F - 52.9 °F 76% 30.04 in 10.0 mi ESE 4.6 mph - N/A   Clear
9:55 PM 61.5 °F - 53.2 °F 74% 30.04 in 10.0 mi ESE 5.8 mph - N/A   Clear
10:15 PM 61.7 °F - 53.2 °F 74% 30.04 in 10.0 mi ESE 5.8 mph - N/A   Clear
10:35 PM 61.2 °F - 53.1 °F 75% 30.04 in 10.0 mi SE 6.9 mph - N/A   Clear
10:55 PM 61.5 °F - 52.9 °F 73% 30.04 in 10.0 mi SE 8.1 mph - N/A   Clear
11:15 PM 61.7 °F - 52.9 °F 73% 30.03 in 10.0 mi SE 8.1 mph - N/A   Scattered Clouds
11:35 PM 62.6 °F - 53.1 °F 71% 30.03 in 10.0 mi SE 8.1 mph - N/A   Clear
11:55 PM 62.6 °F - 53.1 °F 71% 30.03 in 10.0 mi SE 10.4 mph - N/A   Mostly Cloudy